Temperature
18 18 18 18 18 18 18 18 18 18 18 18 18 18 18 18 18 18 18 18 18 18 18 18 18 18 18 18 18 18 18 18 18 18 18 18 17 17 17 17 17 17 17
18 18 18 18 18 18 18 18 18 18 18 18 18 18 18 18 18 18 18 18 18 18 18 18 18 18 18 18 18 18 18 18 18 17 17 17 17 17 17 17 17 17 17
18 18 18 18 18 18 18 18 18 18 18 18 18 18 18 18 18 18 18 18 18 18 18 18 18 18 18 18 18 18 18 18 18 17 17 17 17 17 17 17 17 17 17
18 18 17 18 18 18 18 18 18 18 18 18 18 18 18 18 18 18 18 18 18 18 18 18 18 18 18 18 18 18 18 18 18 17 17 17 17 17 17 17 17 17 17
18 18 18 18 18 18 18 18 18 18 18 18 18 18 18 18 18 18 18 18 18 18 18 18 18 18 18 18 18 18 18 18 17 17 17 17 17 17 17 17 17 17 17
18 18 17 18 18 18 18 18 18 18 18 18 18 18 18 18 18 18 18 18 18 18 17 17 17 17 17 17 18 18 18 18 17 17 17 17 17 17 17 17 17 17 17
19 18 17 18 18 18 18 18 18 18 18 18 18 18 18 18 18 18 18 18 18 17 17 17 17 17 17 17 17 17 17 17 17 17 17 17 17 17 17 17 17 17 17
19 18 18 18 18 18 18 18 18 18 18 18 18 18 18 18 18 18 18 18 18 17 17 17 17 17 17 17 18 18 17 17 17 17 17 17 17 17 17 17 17 17 17
19 19 18 18 18 18 18 18 18 18 18 18 18 18 18 18 18 18 18 18 18 17 17 17 17 17 18 18 18 18 18 17 18 17 17 17 17 17 17 17 17 17 17
19 19 18 18 18 18 18 18 18 18 18 18 18 18 18 18 18 18 18 18 18 17 18 18 18 18 18 18 18 18 18 18 18 18 17 17 17 17 17 17 17 17 17
19 19 19 19 18 18 18 18 18 18 18 18 18 18 18 17 17 17 17 18 18 18 18 18 18 18 18 18 18 18 18 18 18 18 17 17 17 17 17 17 17 17 17
19 19 19 18 18 18 18 18 18 18 17 17 17 17 17 17 17 17 18 18 18 18 18 18 18 18 18 17 18 18 17 18 18 18 17 18 17 17 17 17 17 17 17
19 19 19 18 18 18 18 18 18 18 17 18 17 17 17 17 17 17 17 18 17 18 17 18 18 18 18 17 18 18 18 18 18 18 17 18 17 17 17 17 17 17 17
19 19 19 19 18 18 18 18 18 18 18 18 18 18 17 18 17 17 17 17 17 17 17 18 18 17 17 17 18 18 18 18 18 18 17 18 17 17 17 17 17 17 17
19 19 19 19 18 18 18 18 18 18 18 18 18 18 18 18 18 18 17 17 17 17 18 17 17 17 17 17 18 18 18 18 18 17 17 18 17 17 17 17 17 17 17
20 19 19 19 18 18 18 18 18 18 18 18 18 18 18 18 18 18 18 17 17 18 18 18 17 17 18 18 18 18 17 17 17 17 17 17 17 17 17 17 17 17 16
20 19 19 19 19 19 18 18 18 18 18 18 18 18 18 18 18 18 18 17 18 18 18 18 18 18 18 18 18 18 18 17 17 17 17 17 17 17 17 17 17 17 16
20 19 19 19 19 19 19 18 18 18 18 18 18 18 18 18 18 18 18 18 18 17 18 18 18 18 18 18 18 18 18 17 17 17 17 17 17 17 17 17 17 17 16
20 19 19 19 19 18 18 18 18 18 18 18 18 18 18 18 18 18 18 18 18 18 18 18 18 18 18 18 18 18 17 17 17 17 17 17 17 17 17 17 17 17 16
20 20 19 19 19 18 18 18 18 18 18 18 18 18 18 18 18 18 18 18 17 17 18 17 17 18 18 18 18 18 17 17 17 17 17 17 17 17 17 16 16 16 16
20 20 20 19 19 19 18 18 18 18 18 18 18 18 18 18 18 18 18 18 17 17 17 17 17 17 17 17 17 18 18 17 17 17 17 17 17 17 17 16 16 16 16
21 20 20 20 19 19 19 19 18 18 18 18 18 18 18 18 18 18 18 17 18 18 17 17 17 17 17 17 17 18 18 18 17 17 17 17 16 16 16 16 16 16 16
21 21 20 20 19 19 19 18 18 18 18 18 18 18 18 18 18 18 17 17 17 17 17 17 17 17 17 17 17 18 18 18 17 17 16 16 16 16 16 16 16 16 15
21 21 20 20 20 19 19 19 18 18 18 18 18 18 18 18 18 18 18 17 17 17 17 17 17 17 17 17 17 17 17 17 17 17 16 16 16 16 16 15 15 15 15
21 21 21 21 20 20 19 19 19 18 18 18 18 18 18 18 18 18 17 17 17 17 17 17 17 17 17 17 17 17 17 17 17 17 16 16 15 15 15 15 15 15 15
22 21 21 21 20 20 20 19 19 18 18 18 18 18 18 18 17 17 17 17 17 17 17 17 17 17 17 17 17 17 17 17 16 16 16 16 15 15 15 15 14 14 14
Wind_Speed
5 8 10 9 10 11 11 12 12 12 13 14 14 15 15 16 16 17 17 18 19 19 19 19 19 19 19 19 19 19 19 19 19 19 19 19 19 19 18 17 16 17 18
7 9 10 10 11 11 11 12 12 13 14 14 15 15 15 16 16 16 17 17 18 18 18 19 19 19 19 19 19 19 19 19 18 18 19 19 18 18 16 14 13 16 17
7 9 10 10 10 10 11 12 13 14 14 15 15 15 16 16 16 16 17 17 18 18 18 19 19 18 18 18 18 18 18 17 17 16 15 16 17 17 16 16 17 17 16
8 9 10 10 10 10 10 11 13 14 14 14 15 15 16 16 16 17 17 18 18 18 18 18 17 17 17 17 17 17 17 16 14 12 12 14 16 16 16 16 17 16 15
8 9 11 9 9 10 10 11 12 13 14 14 15 15 16 16 16 17 17 17 17 17 17 16 16 16 16 16 16 16 15 14 10 9 13 13 15 16 15 16 15 15 14
8 9 12 8 9 10 11 11 12 12 13 14 14 15 15 16 16 16 17 16 16 16 16 16 16 15 15 15 14 14 13 11 9 12 12 12 14 14 15 15 14 14 13
9 9 11 9 9 9 10 11 11 12 13 14 14 15 15 15 15 16 16 15 15 15 14 15 14 14 14 13 13 12 10 6 8 11 10 12 14 14 13 13 13 12 12
8 9 11 10 8 9 10 10 11 11 12 12 13 13 14 14 14 14 14 14 13 14 13 13 13 13 12 12 12 11 7 4 10 10 10 12 14 12 12 12 12 11 11
7 7 7 9 9 9 9 9 9 10 11 11 11 12 12 12 12 12 12 12 12 12 12 12 12 12 11 11 10 9 6 1 6 9 9 11 13 11 11 11 11 10 10
6 6 6 7 7 7 10 9 8 9 9 9 10 10 10 11 11 10 11 11 11 11 10 10 10 10 10 9 9 8 6 5 6 8 8 11 12 10 10 10 9 9 9
5 5 5 6 6 5 7 8 8 8 7 7 8 7 5 7 9 9 11 10 9 9 8 8 8 8 8 9 8 7 6 4 6 6 7 13 10 10 9 9 9 9 8
6 5 5 5 5 4 5 5 4 6 6 4 6 6 6 6 5 7 10 8 8 7 7 7 7 7 6 7 9 8 4 5 5 6 9 12 9 9 9 8 8 8 8
6 5 5 5 4 3 3 3 3 4 4 5 5 4 4 4 5 5 6 7 6 6 5 6 6 3 3 4 3 4 4 3 4 5 10 11 9 8 8 8 8 8 7
5 5 4 4 3 2 1 2 2 3 3 3 4 2 3 3 2 3 2 3 3 3 3 2 2 3 2 3 3 3 4 2 3 4 9 10 9 9 9 8 8 8 8
5 5 4 3 3 3 1 1 2 1 2 3 2 3 1 2 2 3 2 1 1 2 3 2 2 2 2 3 3 3 2 2 2 3 7 11 10 10 9 9 9 9 9
6 5 5 5 4 4 3 2 1 1 2 1 1 2 1 1 2 2 3 2 1 1 1 1 1 2 2 2 2 2 2 3 3 3 4 9 11 11 10 10 10 10 10
6 6 5 5 5 4 3 3 2 2 2 2 1 1 2 2 2 2 2 2 1 2 2 2 2 2 2 2 2 3 3 3 3 3 3 4 8 12 12 11 10 10 11
6 6 6 5 5 5 4 3 2 2 1 1 2 2 2 2 2 2 2 1 1 2 2 2 3 2 2 2 2 2 2 3 3 4 4 5 4 6 10 11 10 10 10
6 6 6 6 5 5 4 4 3 2 2 2 2 2 3 3 3 3 2 1 3 2 2 3 2 2 2 2 2 2 2 2 2 3 3 3 3 4 5 9 10 9 9
6 6 6 6 6 5 4 4 3 2 2 2 2 2 3 3 4 4 3 2 3 2 2 2 2 2 2 2 2 1 2 2 2 2 2 2 2 2 3 3 5 6 7
7 7 7 6 6 5 4 4 4 3 2 2 2 2 3 3 3 3 3 2 3 3 3 3 3 3 2 1 2 2 2 3 2 1 1 1 1 1 0 1 1 1 3
8 8 8 7 7 6 4 3 3 2 2 2 1 1 2 3 3 3 3 3 2 2 3 3 3 3 2 3 2 3 2 3 2 1 2 2 2 2 2 2 2 1 0
10 9 8 7 7 7 5 4 4 3 3 2 2 2 2 2 3 2 2 3 3 3 2 3 3 4 4 3 3 3 3 2 1 2 2 2 2 2 2 3 3 3 3
10 9 9 8 7 6 6 5 5 4 3 2 2 1 1 1 2 2 2 2 3 3 2 4 3 4 4 4 3 4 4 2 2 1 2 3 3 2 2 2 3 4 4
10 9 9 8 7 7 6 6 5 5 3 2 2 2 2 1 1 1 2 2 2 3 2 3 3 4 4 4 3 3 3 3 3 3 2 2 2 2 3 3 3 4 5
10 9 9 9 8 7 7 6 6 5 4 3 2 2 2 1 1 1 1 1 2 2 2 2 2 3 3 3 3 3 3 3 3 3 3 2 2 2 4 4 4 5 6
Wind_Direction
78 76 70 61 61 61 64 68 70 73 78 78 79 83 86 88 90 90 92 96 98 100 101 102 102 102 104 107 107 109 110 111 111 111 111 112 114 116 116 121 124 113 115
92 87 82 65 64 63 66 68 74 80 79 78 80 82 86 88 90 94 95 96 97 99 100 101 102 101 103 106 108 109 110 111 111 113 116 113 112 114 115 112 102 112 119
93 92 89 71 68 66 68 72 82 81 80 80 82 82 82 84 87 95 96 96 96 98 99 100 102 103 105 107 108 109 110 112 114 122 130 119 114 112 111 109 109 116 117
94 90 80 77 73 70 72 77 82 82 81 80 81 81 80 82 85 91 93 93 93 95 97 99 102 104 106 107 109 110 110 113 119 138 123 114 116 114 115 116 117 118 118
94 92 88 80 78 74 73 76 81 82 83 82 82 83 82 83 87 89 91 91 92 95 98 100 101 104 105 106 109 110 113 119 134 129 107 110 112 118 120 120 120 121 120
106 97 93 82 80 77 77 76 79 82 83 84 83 83 84 85 89 92 91 91 92 94 98 100 101 102 104 106 110 113 119 135 151 109 113 116 116 121 123 123 123 123 124
103 100 99 88 84 83 82 80 81 82 83 83 83 83 84 86 90 92 92 93 93 95 99 101 102 101 102 106 109 113 120 143 115 110 116 112 113 124 125 126 127 127 127
106 104 107 107 90 86 84 82 83 83 85 86 86 86 86 87 90 94 96 95 93 94 95 100 100 100 100 104 108 113 122 155 117 112 111 110 117 127 129 130 132 132 133
106 104 108 115 115 110 92 83 85 84 84 86 89 90 91 91 92 94 98 97 96 94 94 99 102 101 103 106 109 113 116 168 121 115 116 116 126 133 135 137 139 140 139
113 110 112 107 107 116 112 100 92 90 89 90 92 96 104 111 109 110 110 98 98 98 99 102 105 107 109 111 113 120 147 205 117 119 118 122 136 141 143 145 146 147 148
119 117 114 112 107 106 106 115 122 117 108 122 113 115 135 117 112 118 92 100 104 106 107 108 114 120 129 130 128 146 183 141 113 108 110 121 143 149 150 153 155 157 161
134 131 119 109 105 104 102 113 115 117 111 101 93 105 103 92 93 100 113 114 112 117 125 125 135 159 180 141 143 179 150 123 125 123 117 133 151 159 162 163 163 166 172
145 139 132 124 123 107 103 110 101 102 112 115 99 103 101 113 118 120 127 135 135 147 135 138 170 153 127 114 142 142 117 123 124 122 127 145 161 169 172 174 177 178 179
150 146 137 131 129 107 79 106 132 127 124 112 115 121 124 121 110 107 123 124 141 133 119 135 130 121 123 139 154 146 147 147 126 118 132 154 172 181 183 185 189 191 190
166 167 155 156 152 160 161 257 120 108 115 113 117 123 145 148 133 120 105 122 136 125 150 170 148 136 163 168 174 171 173 154 144 157 145 164 182 191 193 196 199 203 202
182 177 168 181 178 186 189 202 211 178 151 130 127 119 159 152 141 151 159 162 143 148 132 191 168 180 204 194 193 180 208 193 173 202 184 170 187 196 201 206 209 212 211
187 184 184 187 188 200 208 214 209 214 186 169 150 156 200 202 172 207 186 187 178 173 181 212 209 211 210 202 203 206 208 215 201 209 220 203 192 196 204 210 216 218 218
191 187 195 197 188 198 211 222 228 235 225 216 208 193 199 220 210 233 229 212 217 228 217 207 224 214 224 235 221 223 206 195 205 212 222 222 223 204 197 202 212 218 223
195 195 198 206 206 205 204 212 221 224 244 245 237 225 205 216 222 235 238 245 244 239 244 252 202 236 230 252 238 210 217 212 205 212 221 229 226 226 212 183 198 212 219
193 198 204 205 211 215 211 209 218 222 221 231 241 233 234 224 226 246 225 222 248 242 239 237 243 243 252 255 267 219 210 211 215 212 223 215 216 228 241 202 188 198 203
192 195 204 210 202 209 215 215 211 210 215 215 223 221 229 239 232 242 262 215 245 247 252 244 240 225 232 234 242 222 195 195 186 202 201 201 186 197 185 145 200 208 178
196 196 204 207 206 209 210 219 225 227 225 215 237 209 232 235 238 226 240 250 247 256 246 247 250 254 240 223 248 250 227 195 178 174 173 169 147 121 115 122 113 106 264
198 198 202 205 205 210 210 207 208 202 217 213 206 201 228 239 244 255 250 265 273 264 258 258 255 251 254 238 235 250 258 241 156 147 125 122 121 119 106 97 94 90 92
199 196 199 199 201 201 203 214 219 229 231 224 224 194 208 228 249 249 254 261 272 275 269 265 254 261 256 258 238 241 259 274 239 196 154 130 117 101 90 85 87 88 85
196 193 192 192 197 199 202 208 217 231 230 211 203 195 239 217 251 274 273 276 269 274 283 286 281 266 256 260 259 252 244 234 233 234 213 162 115 79 82 82 79 83 87
192 192 190 188 194 196 201 207 215 224 229 227 221 221 223 206 202 277 282 302 288 294 286 279 277 263 272 266 261 257 251 242 225 223 218 192 146 95 78 74 73 75 82
Height
1535 1534 1531 1531 1530 1528 1527 1526 1525 1524 1523 1523 1522 1521 1521 1521 1520 1520 1521 1521 1522 1524 1525 1527 1528 1530 1531 1533 1534 1536 1538 1540 1542 1544 1545 1547 1548 1550 1552 1553 1555 1556 1557
1537 1536 1533 1533 1532 1531 1530 1529 1528 1527 1527 1526 1525 1525 1525 1525 1525 1524 1525 1525 1527 1528 1529 1530 1532 1533 1534 1536 1538 1540 1541 1543 1545 1547 1548 1550 1551 1552 1554 1556 1557 1558 1559
1539 1538 1536 1535 1534 1533 1532 1532 1531 1531 1530 1530 1529 1529 1528 1528 1528 1528 1529 1530 1531 1532 1533 1534 1535 1537 1538 1540 1541 1543 1545 1546 1548 1550 1551 1554 1554 1555 1557 1558 1559 1560 1561
1540 1540 1539 1537 1537 1535 1534 1534 1534 1534 1534 1533 1533 1532 1532 1532 1532 1532 1533 1533 1534 1535 1536 1538 1539 1540 1542 1543 1545 1546 1548 1549 1551 1553 1556 1557 1557 1558 1559 1560 1561 1562 1564
1542 1542 1540 1539 1539 1538 1537 1537 1537 1537 1537 1536 1536 1536 1536 1536 1536 1536 1536 1537 1538 1539 1540 1541 1542 1544 1545 1546 1548 1549 1550 1552 1554 1556 1558 1559 1559 1560 1561 1562 1563 1565 1566
1544 1544 1542 1541 1541 1541 1540 1540 1540 1540 1540 1539 1540 1539 1539 1539 1539 1539 1540 1541 1542 1543 1544 1545 1546 1547 1548 1550 1551 1552 1553 1555 1557 1560 1560 1561 1562 1562 1563 1564 1565 1566 1568
1546 1546 1545 1543 1544 1543 1543 1543 1543 1542 1543 1542 1542 1543 1543 1543 1542 1543 1544 1545 1546 1546 1547 1548 1549 1550 1551 1553 1554 1555 1556 1557 1561 1562 1562 1563 1563 1564 1565 1566 1567 1568 1569
1548 1548 1547 1545 1546 1546 1546 1546 1546 1545 1545 1546 1546 1546 1546 1546 1546 1547 1548 1548 1549 1550 1551 1551 1552 1553 1554 1555 1556 1557 1558 1560 1563 1564 1564 1565 1564 1565 1567 1568 1569 1570 1571
1549 1550 1550 1550 1548 1548 1548 1548 1548 1548 1548 1548 1549 1549 1549 1549 1550 1550 1551 1552 1552 1553 1554 1555 1555 1556 1557 1557 1558 1559 1560 1561 1565 1565 1566 1566 1566 1567 1568 1569 1570 1571 1572
1551 1551 1551 1552 1552 1552 1552 1550 1550 1551 1551 1551 1551 1551 1552 1552 1553 1553 1554 1554 1555 1556 1556 1557 1558 1559 1559 1560 1561 1561 1562 1564 1567 1567 1568 1567 1567 1568 1569 1570 1571 1572 1573
1552 1553 1553 1554 1554 1554 1555 1553 1553 1553 1553 1554 1554 1554 1555 1557 1557 1557 1557 1557 1558 1558 1559 1560 1560 1561 1561 1562 1562 1562 1564 1567 1568 1568 1568 1568 1568 1569 1570 1571 1572 1572 1573
1553 1554 1554 1555 1555 1556 1556 1556 1556 1557 1556 1556 1557 1557 1558 1558 1559 1559 1558 1559 1560 1560 1561 1562 1562 1563 1564 1565 1564 1564 1567 1568 1569 1569 1568 1568 1569 1569 1570 1571 1572 1573 1573
1554 1555 1556 1556 1556 1557 1557 1558 1558 1558 1558 1558 1558 1558 1559 1560 1561 1561 1562 1562 1562 1563 1564 1564 1564 1566 1566 1566 1566 1567 1568 1569 1569 1570 1569 1568 1569 1570 1570 1571 1572 1573 1574
1555 1556 1557 1557 1557 1557 1558 1559 1559 1559 1560 1560 1559 1559 1560 1561 1561 1562 1562 1563 1564 1564 1564 1565 1566 1566 1566 1567 1567 1568 1568 1569 1570 1570 1569 1569 1569 1570 1570 1571 1572 1573 1573
1556 1556 1557 1557 1557 1557 1557 1558 1559 1560 1561 1560 1560 1560 1560 1562 1562 1563 1562 1563 1564 1565 1565 1565 1566 1566 1566 1567 1567 1567 1568 1568 1569 1570 1569 1569 1569 1569 1570 1571 1571 1572 1573
1556 1557 1557 1557 1557 1557 1558 1558 1559 1560 1560 1561 1561 1561 1561 1562 1562 1563 1563 1563 1564 1565 1565 1565 1566 1566 1566 1567 1567 1567 1567 1568 1568 1568 1569 1568 1568 1569 1569 1570 1570 1571 1572
1556 1556 1557 1557 1557 1558 1558 1559 1560 1560 1561 1561 1561 1561 1561 1561 1562 1563 1563 1564 1564 1564 1564 1565 1565 1565 1565 1566 1566 1566 1567 1567 1567 1567 1568 1568 1568 1568 1568 1568 1569 1570 1570
1555 1556 1556 1558 1558 1558 1558 1558 1559 1560 1560 1561 1561 1561 1560 1561 1561 1562 1563 1563 1563 1564 1564 1564 1564 1565 1565 1565 1565 1565 1565 1565 1565 1565 1566 1566 1567 1567 1567 1567 1567 1568 1568
1554 1555 1556 1556 1557 1557 1558 1558 1558 1559 1559 1560 1560 1560 1560 1560 1561 1561 1562 1562 1562 1563 1563 1563 1563 1563 1563 1563 1564 1563 1564 1564 1564 1564 1564 1565 1565 1565 1566 1565 1565 1566 1566
1553 1553 1554 1555 1555 1556 1557 1557 1558 1558 1559 1559 1559 1559 1559 1560 1560 1560 1560 1560 1561 1561 1561 1561 1561 1561 1561 1561 1562 1562 1562 1562 1562 1562 1562 1563 1563 1563 1563 1564 1563 1564 1564
1551 1552 1553 1554 1554 1555 1556 1557 1557 1558 1558 1558 1558 1558 1558 1558 1559 1558 1559 1559 1559 1559 1559 1560 1560 1559 1559 1559 1560 1560 1560 1560 1560 1560 1560 1560 1561 1561 1561 1561 1562 1562 1562
1549 1550 1551 1552 1553 1554 1554 1555 1556 1556 1557 1557 1557 1557 1557 1557 1557 1558 1557 1558 1558 1558 1557 1557 1557 1558 1558 1557 1558 1558 1558 1559 1558 1558 1558 1558 1558 1558 1558 1559 1559 1559 1560
1547 1549 1550 1551 1552 1552 1553 1554 1555 1555 1556 1556 1556 1556 1556 1556 1556 1556 1556 1556 1556 1556 1556 1555 1555 1555 1556 1555 1555 1556 1556 1555 1556 1556 1555 1555 1555 1556 1556 1557 1556 1557 1557
1545 1547 1548 1549 1550 1551 1551 1553 1554 1554 1555 1555 1555 1555 1555 1554 1554 1554 1554 1554 1554 1554 1554 1554 1554 1553 1553 1553 1553 1553 1553 1553 1554 1554 1554 1554 1554 1554 1554 1555 1555 1555 1555
1543 1545 1546 1547 1548 1549 1550 1551 1552 1553 1554 1554 1554 1553 1553 1553 1553 1553 1553 1552 1552 1552 1552 1551 1551 1551 1551 1550 1551 1550 1550 1550 1551 1552 1552 1553 1553 1553 1553 1553 1553 1553 1553
1541 1542 1544 1545 1546 1547 1548 1549 1550 1551 1552 1552 1552 1553 1553 1553 1552 1551 1551 1551 1550 1550 1550 1549 1549 1549 1548 1548 1547 1548 1548 1548 1548 1549 1549 1550 1550 1551 1551 1551 1551 1552 1552